Regional Weather Roundup
Issued by NWS

Home | Current Version | Previous Version | Text Only | Print | Product List | Glossary On
Versions: 1 2 3 4 5 6 7 8 9 10 11 12 13 14 15 16 17 18 19 20 21 22 23 24 25 26 27 28 29 30 31 32 33 34 35 36 37 38 39 40 41 42 43 44 45 46 47 48 49 50
000
ASUS42 KFFC 251003
RWRGA
WEATHER ROUNDUP FOR GEORGIA
NATIONAL WEATHER SERVICE PEACHTREE CITY GA
500 AM EST SUN JAN 25 2015

NOTE: "FAIR" INDICATES FEW OR NO CLOUDS BELOW 12,000 FEET WITH NO
SIGNIFICANT WEATHER AND/OR OBSTRUCTIONS TO VISIBILITY.

* = USE WITH CAUTION. THE STATIONS MARKED WITH AN ASTERISK MAY NOT
REPORT WEATHER SUCH AS PRECIPITATION, FOG, OR THUNDER AND ARE NOT
QUALITY CONTROLLED BY NWS.

THE REMARK "TC" DENOTES TEMPERATURE READING IN DEGREES CELSIUS.

GAZ001>058-251100-
NORTH GEORGIA

CITY           SKY/WX    TMP DP  RH WIND       PRES   REMARKS
ATLANTA        CLEAR     34  27  75 CALM      29.95S
ATHENS         FAIR      32  27  81 CALM      29.94F
CHAMBLEE       CLEAR     29  27  92 CALM      29.95R
PEACHTREE CITY CLEAR     27  24  89 CALM      29.98S
ROME           CLEAR     27  25  92 CALM      29.95S
WEST ATLANTA   CLEAR     29  26  89 CALM      29.96S
GAINESVILLE    CLEAR     35  28  75 W8        29.93F WCI  29
CARTERSVILLE   CLEAR     26  24  92 CALM      29.96S


CITY           SKY/WX    TMP DP  RH WIND       PRES   REMARKS
DALTON*        CLEAR     28  28 100 CALM      29.95F
MARIETTA       CLEAR     28  27  96 SE2       29.95R
$$

GAZ059>098-102>109-251100-
CENTRAL GEORGIA

CITY           SKY/WX    TMP DP  RH WIND       PRES   REMARKS
AUGUSTA-BUSH   CLEAR     36  28  73 N5        29.96S WCI  32
AUGUSTA-DANIEL CLEAR     41  29  62 NW7       29.95F
COLUMBUS       CLEAR     32  29  88 CALM      30.02R
MACON          CLEAR     29  29 100 CALM      30.00R
ROBINS AFB     CLEAR     33  30  90 SE3       29.97S


CITY           SKY/WX    TMP DP  RH WIND       PRES   REMARKS
LAGRANGE*      CLEAR     30  29  96 CALM      30.00R
SYLVANIA*      CLEAR     35  32  89 CALM      29.99R
MILLEDGEVILLE* CLEAR     32  32 100 CALM      29.98R
$$

GAZ099>101-110>166-251100-
SOUTH GEORGIA

CITY           SKY/WX    TMP DP  RH WIND       PRES   REMARKS
SAVANNAH       CLEAR     36  30  79 W6        30.00R WCI  31
VALDOSTA       CLEAR     34  33  96 CALM      30.05S
ALMA           CLEAR     36  32  85 CALM      30.03S
ST SIMONS      CLEAR     41  34  76 W9        30.02R
FT STEWART     CLEAR     37  32  81 SW5       30.00R WCI  33
ALBANY         CLEAR     33  30  88 CALM      30.07S
HUNTER AFB     CLEAR     37  31  79 W3        29.98R
MOODY AFB      CLEAR     36  32  85 W3        30.05R
BRUNSWICK      CLEAR     41  34  75 W3        30.03S


CITY           SKY/WX    TMP DP  RH WIND       PRES   REMARKS
BAINBRIDGE*    CLEAR     37  36  93 CALM      30.06S
MOULTRIE*      CLEAR     36  36 100 CALM      30.06R
VIDALIA*       CLEAR     36  32  87 W3        30.01R
WAYCROSS*      CLEAR     40  37  87 W6        30.04S
DOUGLAS*       CLEAR     37  36  93 CALM      30.05S
$$


USA.gov is the U.S. government's official web portal to all federal, state and local government web resources and services.